Regional Weather Roundup
Issued by NWS

Home | Current Version | Previous Version | Graphics & Text | Print | Product List | Glossary On
Versions: 1 2 3 4 5 6 7 8 9 10 11 12 13 14 15 16 17 18 19 20 21 22 23 24 25 26 27 28 29 30 31 32 33 34 35 36 37 38 39 40 41 42 43 44 45 46 47 48 49 50
000
ASUS43 KLMK 222302
RWRKY
KENTUCKY REGIONAL WEATHER ROUNDUP
NATIONAL WEATHER SERVICE LOUISVILLE KY
700 PM EDT FRI AUG 22 2014

NOTE "FAIR" INDICATES FEW OR NO CLOUDS BELOW 12,000 FEET
WITH NO SIGNIFICANT WEATHER AND/OR OBSTRUCTIONS TO VISIBILITY.

KYZ001>023-026-027-061>063-070>075-230000-
WESTERN AND SOUTH CENTRAL KENTUCKY

CITY           SKY/WX    TMP DP  RH WIND       PRES   REMARKS
PADUCAH        PTSUNNY   92  74  55 SW7       29.95F HX 101
HENDERSON      PTSUNNY   88  77  70 CALM      29.94R HX 100
OWENSBORO      MOSUNNY   88  79  74 SW3       29.95F HX 103
HOPKINSVILLE   PTSUNNY   89  76  63 SW10      29.97F HX 100
BOWLING GREEN  PTSUNNY   89  72  56 W8        29.97F HX  96
GLASGOW        MOSUNNY   89  72  56 SW3       29.98S HX  95
$$

KYZ024-025-028>034-038-045-046-053-230000-
NORTH CENTRAL KENTUCKY

CITY           SKY/WX    TMP DP  RH WIND       PRES   REMARKS
LOUISVILLE/SDF PTSUNNY   89  76  65 SW12      29.94F HX 100
LOUISVILLE/LOU MOSUNNY   88  75  65 W10       29.94F HX  97
FORT KNOX      MOSUNNY   86  76  71 SW8       29.96F HX  96
$$

KYZ035>037-039>044-047>052-055>060-089>105-230000-
NORTHEAST KENTUCKY

CITY           SKY/WX    TMP DP  RH WIND       PRES   REMARKS
LEXINGTON      TSTM      74  70  87 NE7       29.99F FOG
COVINGTON      PTSUNNY   85  73  67 NW12      29.96S HX  91
FRANKFORT      PTSUNNY   81  73  76 E7        29.96S
$$

KYZ054-064>069-076>088-106>120-230000-
SOUTHEAST KENTUCKY

CITY           SKY/WX    TMP DP  RH WIND       PRES   REMARKS
JACKSON        MOSUNNY   81  74  79 CALM      29.99F
LONDON         SUNNY     88  71  57 SW8       30.00F HX  94
SOMERSET       CLOUDY    86  68  54 W9G16     30.00F
MIDDLESBORO    MOSUNNY   88  72  58 CALM      30.01F HX  95
MONTICELLO     CLEAR     87  75  67 SW6       30.01F HX  96
$$




USA.gov is the U.S. government's official web portal to all federal, state and local government web resources and services.